User: anonymous   Login
Location: Stillwell
(40.4602°N, 82.0928°W)
Time: 06:01:56
(UTC-05:00)
Language:

Cosmos 2333 Rocket - Orbit

View from above orbital plane
View from above orbital plane
View from above satellite
View from above satellite

Ground track
Ground track

The orbit data is extracted from the following two-line orbital elements,

1 24298U 96051B   14352.14499946 -.00000163  00000-0 -61921-4 0  6247
2 24298 070.8550 184.5448 0013497 099.9288 016.2764 14.12452372943042
Epoch (UTC): 18 December 2014 03:28:47
Eccentricity: 0.0013497
inclination: 70.8550°
perigee height: 841 km
apogee height: 861 km
right ascension of ascending node: 184.5448°
argument of perigee: 99.9288°
revolutions per day: 14.12452372
mean anomaly at epoch: 16.2764°
orbit number at epoch: 94304

The dashed part of the orbit path shows where the satellite is in the earth's shadow,  

DLR